Wind_Speed
11 15 19 19 21 26 26 29 35 37 34 32 32 38 47 43 42 45 43 39 38 47 42 41 44 45 43 46 48 46 50 50 46 39 36 37 39 38 38 39 39 37 36 35
16 19 17 19 21 26 28 30 35 34 30 29 35 41 39 36 45 39 42 45 42 37 43 42 38 37 46 49 48 51 54 54 52 44 39 42 39 37 39 40 40 36 36 35
18 19 21 22 25 26 26 28 30 31 27 26 35 39 41 40 37 37 39 34 44 42 44 40 36 43 41 41 43 42 55 59 60 54 48 48 43 43 41 43 33 29 36 31
21 21 23 25 27 24 30 27 31 30 29 29 24 27 38 41 40 36 39 38 37 40 44 49 45 42 45 45 46 49 55 60 57 52 50 52 44 40 36 35 31 31 31 27
22 21 22 27 28 28 36 31 30 30 33 33 32 28 42 36 40 40 34 37 40 42 40 40 51 50 53 54 57 59 55 57 60 58 57 52 42 36 32 34 34 33 29 28
24 21 22 23 25 26 29 29 30 33 33 24 37 35 41 38 39 37 36 33 34 36 38 43 40 42 59 62 61 59 51 48 43 37 38 36 36 30 32 31 32 28 29 29
22 21 18 18 17 20 20 23 20 20 20 18 34 35 36 40 33 39 35 33 32 26 30 29 32 36 33 34 31 30 36 40 35 33 33 30 29 27 32 32 27 26 25 25
20 23 17 14 23 23 21 20 11 12 16 19 29 21 31 28 30 35 36 32 28 23 33 36 27 27 32 31 30 29 39 36 35 28 30 28 28 27 34 30 26 25 23 24
22 23 24 25 24 17 22 22 8 20 26 24 32 33 34 30 30 30 36 31 33 28 23 22 31 29 27 25 26 31 31 37 28 29 30 28 26 30 31 29 27 26 25 23
19 32 25 28 22 24 24 21 18 10 5 17 23 31 26 21 23 29 29 28 25 23 24 25 26 27 25 25 28 29 25 28 27 27 28 27 25 28 31 31 29 25 21 18
21 25 29 23 22 20 19 18 16 11 13 10 14 18 21 16 18 18 28 29 24 17 20 18 20 23 22 26 30 33 24 24 22 23 24 25 26 30 31 26 23 17 16 15
17 19 29 29 26 24 25 21 11 17 19 23 20 32 22 21 29 16 19 22 9 15 18 27 25 26 30 33 34 31 25 22 21 21 21 22 23 23 22 20 16 14 15 15
21 11 19 22 23 8 12 12 20 18 18 22 16 25 23 39 23 17 11 6 7 2 14 14 32 30 18 19 18 22 23 23 22 20 17 16 16 17 16 15 14 15 16 18
26 23 22 24 29 18 23 25 22 21 21 23 25 29 24 31 35 6 3 6 13 8 17 3 23 29 28 24 22 21 18 20 20 18 20 20 19 17 15 14 15 18 17 17
15 20 20 25 28 27 29 33 37 32 30 30 29 27 28 23 28 18 14 15 12 5 11 9 26 30 30 26 26 25 22 19 25 25 23 19 17 14 14 15 16 16 16 14
24 25 18 23 22 23 29 30 33 34 28 31 28 28 25 22 22 24 21 14 10 5 9 12 21 27 29 26 26 25 22 23 22 22 21 17 14 14 15 15 15 13 13 15
14 14 16 25 17 20 20 24 25 30 24 26 28 20 17 18 19 22 13 10 9 7 5 14 20 25 25 26 27 26 25 24 21 17 14 12 14 14 13 12 13 14 13 13
9 14 11 20 19 11 10 19 15 18 14 16 14 11 21 14 15 18 16 13 12 9 8 11 7 27 32 28 26 27 23 20 18 14 13 12 11 12 12 12 14 12 11 11
12 15 9 6 12 20 25 20 31 32 37 23 21 21 20 21 16 12 11 16 13 11 16 9 7 31 35 30 27 25 19 19 14 11 10 9 10 11 12 14 12 11 13 11
13 15 9 11 6 4 6 16 25 29 27 11 14 14 11 6 12 11 4 5 7 21 16 16 17 33 31 31 26 19 20 16 14 13 12 6 9 9 11 12 12 15 14 13
17 12 13 18 11 10 13 15 22 14 15 21 17 18 15 16 15 18 13 9 9 22 22 20 28 38 34 30 24 23 20 18 22 15 11 11 7 6 11 11 13 14 13 13
10 7 4 8 7 4 19 31 15 23 30 25 28 22 19 19 22 20 23 12 11 17 21 21 33 34 35 30 22 24 25 28 18 11 12 14 9 9 11 12 14 12 10 10
9 16 15 10 19 22 22 20 26 23 27 10 9 17 19 20 24 25 27 17 15 16 24 30 32 37 34 26 29 29 27 20 15 14 16 13 14 8 7 12 11 12 10 10
20 25 18 22 20 23 28 24 22 26 15 6 5 8 18 16 20 18 21 14 19 21 31 26 39 37 32 29 29 25 21 17 16 18 13 12 16 12 11 10 10 9 8 8
23 19 17 20 30 25 31 23 25 18 11 12 8 10 14 14 16 15 10 16 23 26 38 37 34 31 25 32 27 20 18 21 17 16 13 13 11 10 10 9 8 9 8 8
16 15 17 26 23 32 30 22 23 17 5 7 10 11 12 16 16 10 4 16 16 38 41 38 34 27 23 28 22 16 22 18 14 14 15 9 10 7 9 8 6 4 5 6
Wind_Direction
299 280 273 274 266 267 274 271 270 269 273 281 273 260 256 255 253 248 247 249 251 232 228 239 241 241 248 250 254 255 258 251 263 265 274 284 285 288 283 274 271 271 281 279
301 279 282 284 275 272 270 271 272 276 277 278 275 270 259 255 250 251 247 251 248 243 241 231 230 239 240 242 254 256 260 254 258 265 272 281 284 285 284 275 270 268 271 273
292 288 289 284 277 275 269 268 274 278 284 274 272 271 263 257 257 252 244 248 250 251 232 228 240 239 242 240 244 251 256 259 257 268 273 277 279 283 282 277 272 262 265 270
289 293 289 283 277 274 274 270 273 276 278 276 270 275 265 261 258 258 256 248 247 246 248 236 234 231 234 238 246 253 253 258 264 267 272 277 278 278 272 268 264 257 263 264
295 297 294 283 276 275 276 277 274 272 273 278 269 261 268 259 262 256 253 248 246 246 250 254 237 236 235 241 246 249 254 262 267 270 270 271 269 266 258 253 258 259 261 265
288 290 290 285 283 282 288 281 277 267 268 262 263 259 266 265 260 260 254 253 250 250 245 242 253 246 241 244 249 252 254 258 263 265 262 256 253 254 249 249 256 263 264 267
307 299 302 298 300 290 274 263 268 255 250 256 260 255 257 269 264 253 254 252 259 250 247 244 248 252 256 258 249 244 249 255 259 254 250 244 246 241 244 246 251 262 265 256
318 312 311 305 298 295 280 266 261 269 273 278 285 288 283 277 260 258 255 247 248 252 248 242 234 244 245 247 249 246 243 247 250 245 236 234 236 236 239 249 253 261 259 252
309 297 297 297 302 291 284 270 266 283 275 279 274 280 275 276 269 252 244 244 252 243 234 225 230 236 234 227 243 249 243 241 240 241 235 235 235 234 236 249 256 259 255 254
304 302 295 298 288 283 266 275 287 272 277 275 259 253 277 259 271 245 247 241 238 232 219 224 226 221 218 227 235 244 240 228 233 232 226 229 232 233 240 248 254 254 254 251
301 296 295 301 282 274 277 261 262 297 269 279 264 267 257 330 293 287 244 249 223 224 221 231 227 223 217 220 212 227 230 223 221 218 221 227 228 232 240 243 244 240 246 251
302 298 289 287 281 272 274 287 241 273 286 261 275 273 309 319 292 299 305 231 243 233 229 221 225 199 197 205 215 222 214 215 214 214 216 219 224 225 222 223 232 240 243 246
287 274 297 294 284 283 284 281 302 285 290 283 278 278 309 307 293 309 215 157 284 38 225 256 216 201 196 187 205 197 201 209 210 205 189 197 200 196 209 220 228 239 243 248
308 277 257 267 277 293 285 294 291 280 273 274 275 297 312 326 321 349 70 84 297 14 330 261 177 172 164 194 190 190 189 181 179 184 190 194 200 202 207 225 236 244 242 240
296 282 284 271 274 277 271 271 280 261 265 255 288 292 301 306 323 358 358 341 288 67 334 323 175 165 173 184 184 172 176 181 180 182 193 195 193 201 224 237 235 231 237 234
274 290 288 285 283 276 272 268 270 274 274 275 279 283 296 300 315 312 300 290 301 354 352 338 179 169 180 170 172 167 168 159 184 190 182 184 199 226 231 226 233 222 219 214
304 304 298 286 293 306 285 273 281 291 274 270 270 298 309 283 280 285 299 304 308 312 328 317 189 179 171 171 165 162 169 190 184 175 179 201 224 225 223 213 208 210 209 221
340 328 283 285 301 275 284 308 307 304 292 310 330 294 275 300 304 293 297 287 281 280 271 281 227 179 170 162 164 171 193 182 169 179 201 221 220 209 195 195 205 205 211 196
342 331 289 271 274 282 299 295 313 325 301 302 298 273 296 287 300 299 290 280 259 252 243 227 224 177 168 160 170 188 184 162 166 172 217 215 184 189 192 203 202 195 188 170
312 327 279 278 280 283 308 282 299 302 305 294 279 262 283 281 265 272 270 162 229 242 224 227 180 172 173 174 188 191 155 155 143 174 206 182 198 195 196 197 184 172 167 182
311 312 295 286 272 263 260 296 310 292 292 294 283 248 229 205 236 242 230 214 301 240 229 207 175 176 172 172 181 157 152 145 186 199 197 173 198 187 195 174 172 168 171 185
303 299 287 313 282 316 317 316 290 298 302 299 272 259 247 237 230 226 224 248 290 250 220 186 172 169 167 171 177 151 162 187 202 200 178 182 200 186 178 175 170 165 182 187
295 300 284 295 294 315 323 318 318 314 306 314 304 251 238 249 236 209 222 241 258 213 197 163 161 160 165 179 154 173 185 191 202 191 174 187 152 199 162 169 160 153 174 181
309 298 302 310 315 325 335 321 321 313 294 275 257 220 223 248 226 211 220 250 234 204 162 163 155 164 167 160 172 186 180 179 184 160 184 185 165 163 161 153 149 160 183 194
312 306 320 317 329 329 325 324 323 318 277 259 235 205 228 211 190 205 211 287 225 192 157 158 162 158 172 160 184 171 169 160 156 180 173 149 157 146 145 154 176 188 197 214
316 315 329 335 321 326 326 336 321 320 301 256 242 220 225 201 205 209 243 233 226 181 173 159 148 163 180 163 164 168 152 160 176 172 133 145 125 154 147 158 172 169 170 185
Height
3070 3070 3067 3065 3065 3062 3061 3059 3054 3053 3055 3057 3056 3055 3051 3058 3060 3062 3065 3069 3070 3073 3077 3084 3089 3092 3094 3094 3093 3094 3099 3103 3105 3104 3104 3107 3108 3109 3109 3110 3111 3109 3108 3107
3067 3064 3064 3062 3060 3058 3058 3056 3051 3051 3053 3055 3048 3044 3041 3047 3049 3054 3056 3057 3061 3064 3069 3074 3079 3084 3087 3084 3082 3084 3088 3093 3096 3097 3100 3100 3100 3100 3100 3099 3101 3103 3101 3101
3063 3062 3060 3058 3056 3055 3053 3052 3049 3049 3049 3050 3043 3038 3037 3036 3039 3040 3043 3048 3052 3054 3059 3063 3070 3074 3075 3074 3073 3074 3079 3082 3086 3090 3091 3092 3092 3093 3092 3089 3093 3095 3095 3096
3060 3058 3056 3053 3050 3052 3046 3048 3045 3043 3043 3040 3042 3029 3032 3030 3031 3035 3036 3038 3044 3046 3049 3051 3055 3060 3063 3064 3065 3066 3068 3072 3078 3081 3080 3081 3083 3086 3086 3083 3085 3088 3090 3091
3056 3053 3051 3048 3046 3046 3041 3042 3040 3038 3036 3034 3034 3032 3014 3027 3021 3028 3030 3033 3035 3038 3040 3042 3045 3047 3050 3054 3056 3059 3060 3062 3065 3069 3070 3072 3071 3077 3076 3077 3078 3082 3084 3085
3050 3050 3048 3044 3041 3040 3038 3034 3033 3031 3030 3023 3024 3027 3014 3018 3019 3020 3022 3025 3027 3028 3030 3034 3036 3039 3041 3044 3047 3048 3049 3051 3053 3058 3059 3061 3063 3067 3068 3070 3073 3076 3078 3079
3046 3045 3042 3040 3038 3036 3034 3031 3027 3022 3018 3010 3014 3014 3011 3008 3012 3013 3015 3018 3019 3019 3024 3026 3027 3028 3030 3032 3034 3038 3040 3041 3044 3048 3050 3054 3056 3062 3061 3063 3068 3071 3072 3073
3044 3040 3039 3039 3037 3033 3028 3029 3028 3017 3012 3004 3004 3002 3001 3002 3002 3005 3005 3007 3012 3013 3014 3018 3020 3022 3025 3026 3028 3030 3031 3032 3035 3039 3043 3048 3050 3054 3055 3059 3063 3065 3066 3068
3042 3037 3037 3035 3032 3030 3024 3023 3019 3017 3014 3012 3004 3000 2998 2998 2996 2999 2998 3002 3005 3005 3007 3010 3012 3014 3016 3019 3021 3022 3024 3025 3028 3031 3036 3040 3045 3047 3051 3055 3058 3060 3061 3063
3040 3031 3032 3028 3027 3023 3020 3019 3015 3015 3015 3004 2998 2996 2994 2993 2994 2995 2996 2997 2997 2999 2999 3002 3005 3006 3009 3012 3014 3016 3016 3018 3021 3025 3030 3035 3039 3043 3047 3050 3052 3055 3057 3059
3037 3034 3025 3025 3020 3017 3016 3012 3014 3014 3014 3005 2995 2988 2993 2985 2986 2985 2988 2992 2991 2992 2992 2996 2999 3000 3003 3005 3005 3008 3010 3012 3016 3020 3025 3030 3034 3039 3042 3044 3046 3050 3052 3054
3035 3029 3023 3019 3014 3012 3010 3010 3006 3006 3006 3001 2995 2982 2986 2987 2984 2981 2981 2980 2989 2988 2984 2986 2986 2991 2993 2997 2999 3003 3006 3009 3012 3016 3022 3026 3030 3034 3037 3040 3044 3047 3049 3050
3028 3026 3021 3013 3008 3007 3006 3006 3005 3002 3001 2996 2994 2981 2990 2983 2980 2979 2977 2979 2982 2977 2973 2974 2979 2985 2990 2993 2994 2997 3001 3005 3009 3014 3019 3024 3028 3032 3036 3039 3041 3043 3045 3046
3024 3019 3018 3014 3010 3007 3007 3005 2998 3001 2998 2992 2986 2986 2987 2987 2986 2981 2977 2977 2983 2973 2956 2965 2972 2979 2984 2989 2993 2994 2998 3003 3009 3014 3018 3023 3027 3031 3034 3037 3038 3040 3042 3043
3019 3013 3012 3008 3006 3006 3003 2997 2987 2992 2989 2988 2980 2983 2978 2984 2985 2981 2980 2977 2984 2976 2974 2970 2973 2977 2981 2984 2990 2993 2998 3002 3007 3012 3017 3022 3026 3029 3032 3034 3035 3037 3038 3039
3014 3007 3006 3002 3000 2998 2994 2990 2985 2982 2986 2979 2977 2976 2976 2973 2977 2979 2976 2983 2979 2971 2974 2973 2975 2978 2979 2984 2989 2994 2999 3003 3007 3011 3017 3021 3024 3027 3028 3030 3032 3033 3035 3037
3009 3007 3004 2994 2996 2992 2987 2980 2977 2978 2981 2978 2973 2974 2974 2978 2978 2977 2976 2974 2971 2972 2974 2973 2976 2978 2978 2983 2990 2994 2999 3002 3006 3011 3016 3019 3022 3023 3025 3027 3029 3031 3034 3035
3007 3005 3002 2994 2994 2989 2981 2974 2977 2974 2976 2973 2970 2972 2972 2968 2969 2968 2969 2971 2972 2973 2975 2975 2976 2981 2983 2987 2991 2995 2999 3003 3007 3011 3014 3017 3018 3020 3023 3025 3027 3030 3032 3034
3005 3003 2999 2996 2991 2984 2977 2973 2968 2967 2961 2969 2968 2967 2969 2969 2968 2967 2969 2969 2969 2971 2969 2972 2974 2979 2985 2989 2993 2996 3000 3004 3008 3010 3012 3014 3016 3018 3021 3023 3025 3029 3031 3034
3003 3000 2999 2994 2990 2982 2977 2973 2969 2966 2960 2959 2963 2964 2963 2963 2967 2967 2965 2963 2969 2965 2967 2969 2972 2979 2985 2989 2993 2996 3000 3005 3009 3011 3011 3014 3015 3018 3020 3022 3025 3028 3031 3033
3001 2997 2995 2990 2988 2981 2974 2973 2970 2965 2963 2956 2957 2958 2958 2957 2957 2958 2960 2960 2961 2963 2963 2966 2971 2976 2984 2988 2992 2997 3002 3007 3008 3011 3013 3014 3014 3017 3019 3021 3025 3028 3030 3033
2999 2996 2992 2988 2983 2976 2975 2970 2967 2963 2953 2949 2945 2946 2948 2951 2952 2954 2957 2957 2955 2958 2960 2960 2962 2976 2984 2987 2993 2998 3002 3003 3008 3012 3014 3014 3017 3017 3019 3022 3025 3028 3030 3033
2996 2994 2989 2988 2982 2976 2971 2966 2961 2955 2949 2945 2942 2942 2946 2947 2949 2950 2954 2957 2955 2955 2957 2958 2965 2977 2982 2987 2993 2995 2999 3005 3009 3011 3012 3016 3017 3018 3020 3023 3026 3028 3031 3033
2994 2987 2985 2982 2977 2971 2966 2962 2956 2950 2945 2943 2941 2941 2942 2944 2945 2948 2952 2953 2950 2951 2953 2956 2970 2977 2981 2988 2991 2995 3000 3006 3008 3011 3013 3015 3017 3020 3021 3023 3026 3029 3030 3032
2990 2984 2981 2977 2972 2966 2961 2956 2949 2944 2940 2938 2937 2937 2938 2940 2944 2948 2949 2947 2948 2950 2954 2960 2972 2976 2983 2988 2990 2995 3001 3005 3009 3011 3013 3016 3018 3020 3023 3024 3026 3028 3028 3031
2988 2982 2979 2974 2969 2965 2957 2951 2947 2941 2938 2937 2936 2936 2938 2941 2943 2947 2948 2945 2949 2950 2947 2957 2970 2978 2985 2991 2993 2997 3002 3006 3009 3011 3014 3017 3020 3021 3024 3025 3027 3028 3030 3031